QPF
0.03 0.03 0.02 0.04 0.05 0.05 0.03 0.03 0.02 0.03 0.02 0.02 0.02 0.01 0.01 0.01 0.02 0.02 0.02 0.05 0.08 0.08 0.10 0.09 0.07 0.07 0.07 0.05 0.07 0.06 0.05 0.06 0.06 0.04 0.03 0.02 0.02 0.02 0.02 0.02 0.01 0.02 0.02
0.02 0.02 0.02 0.03 0.04 0.02 0.02 0.02 0.02 0.02 0.03 0.02 0.02 0.03 0.03 0.02 0.02 0.02 0.02 0.03 0.06 0.08 0.09 0.10 0.09 0.09 0.08 0.07 0.06 0.06 0.06 0.06 0.06 0.05 0.05 0.03 0.02 0.02 0.02 0.02 0.01 0.01 0.02
0.02 0.01 0.01 0.01 0.02 0.02 0.03 0.03 0.04 0.04 0.05 0.03 0.02 0.02 0.03 0.02 0.02 0.02 0.02 0.02 0.03 0.06 0.08 0.09 0.10 0.09 0.09 0.08 0.08 0.08 0.07 0.06 0.04 0.03 0.04 0.03 0.02 0.03 0.03 0.03 0.02 0.02 0.02
0.03 0.02 0.02 0.01 0.01 0.02 0.03 0.04 0.05 0.06 0.05 0.03 0.03 0.02 0.01 0.02 0.02 0.01 0.01 0.02 0.02 0.03 0.05 0.07 0.09 0.09 0.09 0.09 0.10 0.09 0.06 0.05 0.03 0.03 0.03 0.04 0.03 0.02 0.01 0.02 0.02 0.02 0.02
0.05 0.03 0.03 0.02 0.02 0.02 0.02 0.03 0.04 0.04 0.04 0.04 0.04 0.03 0.03 0.03 0.02 0.02 0.01 0.02 0.02 0.02 0.02 0.03 0.07 0.08 0.09 0.12 0.12 0.11 0.08 0.07 0.05 0.05 0.05 0.03 0.03 0.02 0.02 0.01 0.01 0.01 0.01
0.05 0.04 0.03 0.02 0.03 0.03 0.03 0.04 0.04 0.05 0.05 0.05 0.04 0.03 0.03 0.02 0.01 0.01 0.02 0.02 0.01 0.02 0.03 0.03 0.04 0.05 0.07 0.09 0.11 0.11 0.10 0.12 0.11 0.08 0.06 0.05 0.04 0.02 0.02 0.01 0.01 0.01 0.01
0.03 0.03 0.03 0.03 0.02 0.02 0.03 0.04 0.05 0.05 0.04 0.04 0.03 0.01 0.01 0.01 0.01 0.01 0.02 0.03 0.02 0.02 0.03 0.06 0.07 0.07 0.06 0.04 0.05 0.07 0.10 0.15 0.16 0.13 0.13 0.10 0.09 0.07 0.05 0.03 0.02 0.02 0.01
0.03 0.03 0.03 0.03 0.03 0.02 0.03 0.05 0.05 0.05 0.06 0.05 0.03 0.02 0.01 0.01 0.01 0.01 0.02 0.03 0.03 0.03 0.04 0.05 0.06 0.08 0.07 0.05 0.05 0.04 0.07 0.13 0.19 0.22 0.20 0.16 0.15 0.13 0.11 0.08 0.06 0.06 0.05
0.02 0.02 0.02 0.03 0.03 0.03 0.03 0.04 0.05 0.04 0.05 0.06 0.05 0.04 0.03 0.02 0.01 0.01 0.01 0.01 0.02 0.02 0.03 0.04 0.04 0.06 0.08 0.08 0.07 0.07 0.06 0.07 0.13 0.20 0.24 0.21 0.17 0.15 0.13 0.12 0.12 0.10 0.09
0.02 0.01 0.01 0.02 0.03 0.03 0.04 0.05 0.04 0.03 0.03 0.04 0.05 0.06 0.05 0.03 0.02 0.02 0.02 0.02 0.02 0.02 0.04 0.04 0.05 0.07 0.09 0.09 0.09 0.09 0.07 0.07 0.07 0.12 0.18 0.18 0.15 0.13 0.12 0.12 0.12 0.10 0.08
0.02 0.01 0.02 0.03 0.03 0.03 0.04 0.05 0.05 0.04 0.04 0.04 0.04 0.05 0.08 0.09 0.06 0.03 0.02 0.03 0.03 0.02 0.02 0.03 0.03 0.04 0.06 0.08 0.07 0.07 0.07 0.07 0.07 0.07 0.08 0.09 0.10 0.10 0.11 0.12 0.12 0.12 0.11
0.04 0.02 0.02 0.03 0.04 0.03 0.03 0.03 0.04 0.05 0.05 0.05 0.04 0.04 0.05 0.05 0.03 0.03 0.02 0.01 0.03 0.03 0.02 0.02 0.02 0.03 0.04 0.04 0.04 0.05 0.05 0.06 0.06 0.05 0.04 0.04 0.06 0.09 0.11 0.11 0.11 0.11 0.11
0.04 0.01 0.03 0.03 0.05 0.04 0.05 0.05 0.05 0.05 0.04 0.03 0.03 0.03 0.02 0.02 0.02 0.03 0.02 0.02 0.03 0.02 0.03 0.02 0.03 0.04 0.05 0.05 0.05 0.06 0.06 0.06 0.06 0.06 0.06 0.06 0.06 0.05 0.06 0.06 0.07 0.07 0.07
0.04 0.02 0.02 0.03 0.05 0.06 0.06 0.06 0.05 0.05 0.04 0.03 0.02 0.03 0.03 0.03 0.03 0.03 0.03 0.02 0.02 0.01 0.01 0.01 0.02 0.02 0.03 0.04 0.04 0.04 0.04 0.03 0.02 0.03 0.03 0.04 0.04 0.04 0.04 0.04 0.05 0.06 0.06
0.04 0.03 0.03 0.03 0.04 0.05 0.05 0.05 0.04 0.05 0.05 0.04 0.04 0.04 0.04 0.03 0.03 0.03 0.04 0.03 0.02 0.01 0.01 0.01 0.01 0.02 0.02 0.02 0.02 0.02 0.01 0.01 0.00 0.01 0.01 0.01 0.02 0.02 0.02 0.04 0.05 0.05 0.06
0.03 0.04 0.03 0.03 0.03 0.03 0.03 0.04 0.04 0.04 0.05 0.04 0.05 0.05 0.04 0.03 0.03 0.03 0.02 0.03 0.03 0.02 0.01 0.01 0.01 0.01 0.01 0.02 0.02 0.01 0.01 0.00 0.00 0.00 0.01 0.01 0.01 0.01 0.02 0.03 0.05 0.06 0.08
0.03 0.04 0.04 0.04 0.04 0.03 0.04 0.05 0.04 0.06 0.06 0.06 0.06 0.05 0.04 0.04 0.04 0.03 0.02 0.03 0.03 0.03 0.03 0.01 0.01 0.01 0.01 0.01 0.01 0.01 0.01 0.00 0.00 0.00 0.00 0.00 0.01 0.01 0.01 0.02 0.03 0.03 0.04
0.04 0.04 0.05 0.06 0.05 0.03 0.03 0.04 0.04 0.06 0.07 0.07 0.08 0.07 0.06 0.05 0.04 0.04 0.03 0.02 0.02 0.03 0.03 0.02 0.01 0.01 0.01 0.01 0.01 0.01 0.01 0.01 0.01 0.01 0.01 0.01 0.01 0.01 0.01 0.02 0.02 0.02 0.02
0.02 0.04 0.06 0.04 0.03 0.02 0.03 0.03 0.04 0.04 0.05 0.06 0.06 0.06 0.06 0.05 0.04 0.04 0.04 0.03 0.03 0.03 0.03 0.02 0.02 0.02 0.01 0.01 0.02 0.01 0.02 0.02 0.02 0.03 0.03 0.02 0.02 0.01 0.01 0.01 0.01 0.01 0.02
0.02 0.02 0.01 0.01 0.02 0.02 0.02 0.03 0.04 0.04 0.04 0.04 0.05 0.05 0.05 0.04 0.03 0.04 0.03 0.05 0.05 0.04 0.04 0.04 0.04 0.03 0.02 0.02 0.02 0.02 0.03 0.05 0.04 0.04 0.04 0.04 0.03 0.02 0.01 0.01 0.01 0.01 0.01
0.02 0.02 0.01 0.01 0.01 0.02 0.02 0.03 0.03 0.04 0.04 0.04 0.04 0.05 0.04 0.05 0.05 0.05 0.04 0.05 0.06 0.06 0.06 0.06 0.05 0.04 0.03 0.03 0.03 0.03 0.04 0.05 0.07 0.06 0.05 0.04 0.04 0.02 0.01 0.01 0.01 0.01 0.01
0.02 0.02 0.01 0.01 0.02 0.03 0.05 0.05 0.04 0.04 0.05 0.05 0.04 0.04 0.05 0.06 0.05 0.06 0.06 0.05 0.06 0.05 0.04 0.03 0.03 0.03 0.04 0.03 0.04 0.04 0.05 0.04 0.04 0.05 0.05 0.04 0.03 0.02 0.01 0.01 0.02 0.01 0.01
0.03 0.03 0.03 0.03 0.04 0.04 0.05 0.06 0.05 0.04 0.03 0.04 0.03 0.03 0.04 0.04 0.04 0.04 0.04 0.05 0.04 0.04 0.04 0.03 0.03 0.03 0.02 0.02 0.03 0.03 0.02 0.02 0.02 0.03 0.04 0.04 0.03 0.02 0.02 0.02 0.02 0.02 0.01
0.06 0.05 0.05 0.05 0.05 0.06 0.06 0.05 0.05 0.04 0.04 0.03 0.03 0.03 0.03 0.03 0.03 0.03 0.03 0.04 0.04 0.05 0.05 0.04 0.03 0.02 0.02 0.02 0.02 0.01 0.01 0.01 0.01 0.02 0.03 0.03 0.02 0.02 0.02 0.02 0.02 0.02 0.01
0.08 0.08 0.08 0.07 0.06 0.06 0.06 0.05 0.04 0.04 0.05 0.04 0.04 0.05 0.05 0.05 0.05 0.05 0.04 0.05 0.06 0.06 0.07 0.06 0.03 0.02 0.02 0.02 0.02 0.01 0.01 0.01 0.01 0.01 0.01 0.02 0.02 0.03 0.03 0.03 0.02 0.02 0.02
0.14 0.13 0.09 0.07 0.06 0.05 0.05 0.05 0.05 0.04 0.04 0.05 0.06 0.06 0.06 0.05 0.05 0.04 0.04 0.04 0.05 0.05 0.04 0.04 0.03 0.02 0.01 0.02 0.02 0.01 0.01 0.01 0.01 0.01 0.01 0.01 0.01 0.01 0.02 0.01 0.01 0.01 0.01
MSLP
1013.83 1013.92 1013.98 1014.04 1014.15 1014.34 1014.63 1015.02 1015.47 1015.93 1016.36 1016.72 1016.97 1017.11 1017.16 1017.14 1017.09 1017.07 1017.09 1017.19 1017.36 1017.59 1017.85 1018.13 1018.39 1018.61 1018.79 1018.92 1019.02 1019.10 1019.17 1019.25 1019.35 1019.46 1019.58 1019.71 1019.83 1019.95 1020.05 1020.14 1020.23 1020.31 1020.39
1013.84 1013.98 1014.10 1014.22 1014.39 1014.62 1014.93 1015.32 1015.75 1016.19 1016.59 1016.90 1017.11 1017.20 1017.19 1017.10 1016.99 1016.90 1016.86 1016.90 1017.04 1017.24 1017.51 1017.79 1018.06 1018.30 1018.48 1018.61 1018.70 1018.76 1018.81 1018.86 1018.94 1019.04 1019.17 1019.31 1019.46 1019.60 1019.73 1019.85 1019.95 1020.04 1020.13
1013.79 1014.00 1014.19 1014.39 1014.62 1014.91 1015.25 1015.64 1016.06 1016.46 1016.82 1017.08 1017.24 1017.28 1017.22 1017.08 1016.91 1016.75 1016.65 1016.64 1016.72 1016.89 1017.12 1017.39 1017.66 1017.89 1018.07 1018.19 1018.26 1018.29 1018.31 1018.34 1018.39 1018.48 1018.61 1018.77 1018.94 1019.11 1019.28 1019.43 1019.56 1019.68 1019.79
1013.73 1013.99 1014.25 1014.53 1014.84 1015.17 1015.55 1015.94 1016.34 1016.71 1017.02 1017.24 1017.35 1017.34 1017.24 1017.06 1016.84 1016.64 1016.48 1016.41 1016.43 1016.55 1016.74 1016.96 1017.20 1017.41 1017.56 1017.66 1017.70 1017.70 1017.69 1017.68 1017.71 1017.78 1017.90 1018.06 1018.25 1018.46 1018.66 1018.85 1019.03 1019.19 1019.34
1013.68 1013.98 1014.30 1014.64 1015.01 1015.39 1015.78 1016.18 1016.55 1016.88 1017.15 1017.33 1017.40 1017.37 1017.25 1017.05 1016.81 1016.57 1016.37 1016.24 1016.20 1016.25 1016.37 1016.53 1016.71 1016.87 1016.99 1017.06 1017.06 1017.03 1016.98 1016.94 1016.93 1016.98 1017.08 1017.23 1017.43 1017.66 1017.89 1018.12 1018.34 1018.54 1018.72
1013.69 1014.00 1014.35 1014.73 1015.13 1015.54 1015.94 1016.32 1016.67 1016.96 1017.19 1017.34 1017.40 1017.37 1017.25 1017.06 1016.82 1016.57 1016.34 1016.16 1016.05 1016.01 1016.05 1016.13 1016.24 1016.34 1016.41 1016.43 1016.40 1016.34 1016.25 1016.18 1016.14 1016.15 1016.22 1016.36 1016.55 1016.78 1017.03 1017.28 1017.52 1017.75 1017.95
1013.78 1014.08 1014.43 1014.82 1015.23 1015.64 1016.03 1016.38 1016.70 1016.96 1017.15 1017.29 1017.35 1017.34 1017.25 1017.09 1016.88 1016.63 1016.39 1016.17 1015.99 1015.87 1015.82 1015.80 1015.82 1015.85 1015.86 1015.84 1015.78 1015.69 1015.58 1015.47 1015.40 1015.38 1015.42 1015.53 1015.69 1015.91 1016.15 1016.40 1016.64 1016.87 1017.08
1013.94 1014.22 1014.55 1014.93 1015.32 1015.70 1016.06 1016.38 1016.65 1016.87 1017.05 1017.19 1017.27 1017.29 1017.26 1017.15 1016.99 1016.78 1016.53 1016.28 1016.05 1015.85 1015.69 1015.58 1015.51 1015.46 1015.41 1015.34 1015.26 1015.15 1015.02 1014.90 1014.81 1014.75 1014.76 1014.83 1014.96 1015.14 1015.35 1015.58 1015.80 1016.01 1016.20
1014.14 1014.39 1014.69 1015.04 1015.39 1015.74 1016.05 1016.32 1016.55 1016.75 1016.91 1017.05 1017.17 1017.25 1017.28 1017.25 1017.15 1016.99 1016.76 1016.49 1016.21 1015.94 1015.69 1015.49 1015.33 1015.20 1015.09 1014.99 1014.88 1014.76 1014.63 1014.50 1014.39 1014.32 1014.30 1014.33 1014.41 1014.55 1014.71 1014.90 1015.08 1015.25 1015.40
1014.30 1014.53 1014.81 1015.12 1015.43 1015.73 1016.00 1016.22 1016.41 1016.58 1016.74 1016.90 1017.05 1017.19 1017.30 1017.36 1017.34 1017.23 1017.03 1016.77 1016.46 1016.13 1015.81 1015.52 1015.27 1015.08 1014.92 1014.78 1014.66 1014.53 1014.41 1014.28 1014.17 1014.08 1014.03 1014.03 1014.07 1014.16 1014.28 1014.42 1014.56 1014.68 1014.78
1014.36 1014.58 1014.85 1015.13 1015.41 1015.67 1015.89 1016.07 1016.23 1016.38 1016.53 1016.71 1016.91 1017.11 1017.30 1017.43 1017.49 1017.45 1017.30 1017.05 1016.73 1016.36 1015.99 1015.63 1015.33 1015.07 1014.87 1014.70 1014.56 1014.44 1014.31 1014.19 1014.08 1013.99 1013.93 1013.90 1013.92 1013.97 1014.05 1014.15 1014.24 1014.32 1014.37
1014.25 1014.49 1014.75 1015.03 1015.29 1015.52 1015.71 1015.86 1015.99 1016.12 1016.27 1016.46 1016.70 1016.95 1017.21 1017.42 1017.56 1017.59 1017.49 1017.28 1016.97 1016.59 1016.19 1015.79 1015.44 1015.14 1014.90 1014.71 1014.56 1014.43 1014.30 1014.19 1014.08 1013.98 1013.91 1013.87 1013.87 1013.90 1013.96 1014.03 1014.10 1014.15 1014.16
1013.96 1014.23 1014.51 1014.79 1015.05 1015.27 1015.44 1015.57 1015.67 1015.79 1015.94 1016.14 1016.39 1016.69 1017.00 1017.27 1017.48 1017.58 1017.55 1017.38 1017.10 1016.74 1016.34 1015.93 1015.55 1015.23 1014.96 1014.75 1014.58 1014.44 1014.31 1014.19 1014.08 1013.98 1013.91 1013.86 1013.86 1013.88 1013.94 1014.00 1014.06 1014.10 1014.11
1013.51 1013.82 1014.13 1014.43 1014.70 1014.91 1015.08 1015.20 1015.29 1015.39 1015.52 1015.71 1015.98 1016.29 1016.63 1016.96 1017.22 1017.38 1017.41 1017.31 1017.08 1016.76 1016.38 1015.99 1015.61 1015.27 1014.99 1014.77 1014.58 1014.42 1014.28 1014.15 1014.03 1013.93 1013.85 1013.80 1013.80 1013.83 1013.90 1013.98 1014.05 1014.11 1014.13
1012.97 1013.31 1013.65 1013.98 1014.27 1014.49 1014.66 1014.77 1014.84 1014.92 1015.03 1015.21 1015.45 1015.76 1016.11 1016.46 1016.76 1016.97 1017.06 1017.02 1016.86 1016.59 1016.27 1015.91 1015.55 1015.23 1014.95 1014.72 1014.51 1014.34 1014.18 1014.03 1013.90 1013.78 1013.70 1013.65 1013.65 1013.70 1013.78 1013.89 1013.99 1014.08 1014.14
1012.42 1012.78 1013.15 1013.50 1013.81 1014.05 1014.21 1014.31 1014.38 1014.43 1014.50 1014.64 1014.85 1015.13 1015.46 1015.80 1016.11 1016.36 1016.50 1016.52 1016.42 1016.23 1015.97 1015.66 1015.35 1015.06 1014.80 1014.56 1014.36 1014.17 1013.99 1013.82 1013.66 1013.53 1013.44 1013.39 1013.39 1013.45 1013.55 1013.68 1013.82 1013.95 1014.05
1011.90 1012.28 1012.67 1013.04 1013.37 1013.62 1013.79 1013.88 1013.92 1013.94 1013.97 1014.05 1014.21 1014.43 1014.72 1015.03 1015.34 1015.59 1015.76 1015.83 1015.80 1015.67 1015.47 1015.24 1014.98 1014.73 1014.50 1014.28 1014.08 1013.89 1013.69 1013.51 1013.33 1013.18 1013.07 1013.01 1013.01 1013.07 1013.19 1013.34 1013.51 1013.68 1013.83
1011.43 1011.83 1012.23 1012.62 1012.96 1013.22 1013.40 1013.48 1013.50 1013.47 1013.46 1013.48 1013.57 1013.73 1013.95 1014.22 1014.49 1014.73 1014.91 1015.01 1015.03 1014.95 1014.82 1014.65 1014.45 1014.25 1014.06 1013.87 1013.68 1013.49 1013.30 1013.10 1012.91 1012.74 1012.61 1012.53 1012.52 1012.58 1012.70 1012.87 1013.06 1013.27 1013.47
1010.97 1011.38 1011.80 1012.21 1012.57 1012.84 1013.02 1013.10 1013.09 1013.04 1012.98 1012.94 1012.96 1013.05 1013.21 1013.41 1013.64 1013.85 1014.02 1014.13 1014.16 1014.13 1014.05 1013.92 1013.78 1013.63 1013.47 1013.32 1013.16 1012.98 1012.80 1012.60 1012.40 1012.22 1012.06 1011.97 1011.94 1011.98 1012.10 1012.27 1012.49 1012.74 1012.98
1010.46 1010.88 1011.33 1011.76 1012.14 1012.43 1012.61 1012.69 1012.68 1012.60 1012.50 1012.42 1012.38 1012.41 1012.50 1012.65 1012.82 1012.99 1013.13 1013.23 1013.27 1013.25 1013.19 1013.10 1013.00 1012.88 1012.77 1012.65 1012.51 1012.36 1012.19 1011.99 1011.79 1011.60 1011.43 1011.31 1011.27 1011.29 1011.40 1011.58 1011.82 1012.10 1012.39
1009.82 1010.28 1010.75 1011.21 1011.61 1011.92 1012.13 1012.21 1012.20 1012.11 1011.99 1011.88 1011.81 1011.80 1011.84 1011.94 1012.07 1012.20 1012.31 1012.38 1012.40 1012.38 1012.32 1012.24 1012.15 1012.06 1011.97 1011.87 1011.77 1011.64 1011.48 1011.30 1011.09 1010.89 1010.71 1010.58 1010.52 1010.53 1010.63 1010.82 1011.08 1011.39 1011.74
1009.04 1009.53 1010.03 1010.52 1010.95 1011.29 1011.52 1011.62 1011.62 1011.54 1011.43 1011.32 1011.23 1011.20 1011.23 1011.30 1011.40 1011.49 1011.57 1011.61 1011.60 1011.56 1011.48 1011.40 1011.30 1011.22 1011.13 1011.05 1010.96 1010.84 1010.70 1010.52 1010.33 1010.12 1009.94 1009.79 1009.71 1009.72 1009.82 1010.02 1010.31 1010.66 1011.06
1008.14 1008.66 1009.21 1009.73 1010.18 1010.55 1010.79 1010.92 1010.94 1010.89 1010.80 1010.71 1010.65 1010.63 1010.66 1010.73 1010.81 1010.89 1010.94 1010.95 1010.91 1010.83 1010.72 1010.61 1010.49 1010.39 1010.31 1010.22 1010.13 1010.03 1009.89 1009.73 1009.53 1009.33 1009.14 1008.99 1008.90 1008.91 1009.02 1009.23 1009.55 1009.94 1010.39
1007.24 1007.79 1008.35 1008.89 1009.37 1009.74 1010.01 1010.16 1010.21 1010.19 1010.14 1010.09 1010.07 1010.09 1010.15 1010.23 1010.32 1010.39 1010.42 1010.40 1010.33 1010.21 1010.07 1009.92 1009.78 1009.65 1009.55 1009.45 1009.36 1009.26 1009.13 1008.97 1008.78 1008.58 1008.39 1008.24 1008.15 1008.16 1008.28 1008.51 1008.86 1009.29 1009.79
1006.48 1007.04 1007.62 1008.16 1008.63 1009.01 1009.27 1009.44 1009.51 1009.53 1009.52 1009.52 1009.55 1009.62 1009.71 1009.83 1009.93 1010.01 1010.03 1009.98 1009.88 1009.72 1009.54 1009.35 1009.18 1009.02 1008.90 1008.80 1008.70 1008.60 1008.47 1008.32 1008.14 1007.95 1007.77 1007.62 1007.54 1007.55 1007.68 1007.92 1008.29 1008.75 1009.28
1006.01 1006.57 1007.12 1007.65 1008.10 1008.46 1008.72 1008.88 1008.96 1009.01 1009.04 1009.08 1009.16 1009.27 1009.41 1009.55 1009.67 1009.74 1009.74 1009.68 1009.54 1009.35 1009.14 1008.91 1008.71 1008.53 1008.39 1008.28 1008.19 1008.09 1007.98 1007.84 1007.68 1007.50 1007.33 1007.19 1007.12 1007.14 1007.26 1007.51 1007.87 1008.34 1008.88
Thickness
5745 5745 5745 5745 5745 5745 5745 5745 5744 5744 5744 5744 5744 5744 5744 5743 5743 5743 5743 5743 5743 5742 5742 5741 5740 5739 5738 5736 5734 5733 5732 5731 5729 5728 5727 5726 5725 5724 5723 5722 5721 5719 5718
5746 5746 5745 5745 5745 5745 5745 5744 5744 5744 5744 5744 5743 5744 5744 5744 5744 5745 5744 5744 5744 5743 5743 5742 5741 5740 5739 5737 5736 5734 5733 5732 5730 5729 5728 5727 5725 5724 5723 5722 5721 5720 5718
5746 5746 5745 5745 5745 5745 5745 5744 5744 5744 5744 5743 5743 5744 5744 5745 5746 5746 5745 5745 5745 5744 5744 5743 5742 5741 5740 5738 5737 5735 5734 5733 5732 5731 5729 5728 5726 5725 5724 5723 5721 5720 5719
5748 5746 5746 5746 5746 5745 5744 5744 5743 5742 5742 5742 5743 5744 5745 5745 5746 5746 5746 5746 5745 5745 5745 5744 5743 5742 5741 5739 5738 5737 5736 5734 5733 5732 5731 5729 5728 5726 5725 5723 5722 5720 5719
5749 5747 5746 5746 5745 5744 5744 5744 5743 5742 5741 5742 5743 5744 5745 5746 5746 5747 5747 5747 5746 5746 5745 5745 5744 5743 5742 5740 5739 5738 5737 5736 5735 5733 5732 5730 5729 5727 5725 5724 5723 5721 5719
5751 5749 5747 5747 5745 5744 5743 5743 5742 5742 5741 5741 5742 5743 5745 5746 5747 5747 5747 5747 5747 5746 5746 5745 5744 5743 5742 5742 5741 5740 5739 5738 5737 5735 5733 5732 5730 5728 5727 5725 5723 5721 5720
5752 5750 5749 5748 5746 5745 5744 5743 5742 5740 5740 5741 5739 5738 5742 5745 5746 5746 5747 5747 5747 5746 5745 5744 5744 5743 5742 5742 5741 5740 5740 5739 5738 5737 5735 5733 5731 5730 5728 5726 5724 5722 5721
5754 5753 5751 5749 5748 5746 5744 5743 5742 5739 5739 5739 5736 5733 5731 5736 5742 5745 5745 5745 5745 5745 5745 5744 5743 5742 5741 5741 5741 5740 5740 5739 5738 5737 5735 5734 5732 5731 5729 5728 5726 5724 5722
5757 5755 5754 5751 5749 5747 5745 5744 5742 5739 5737 5737 5737 5733 5727 5726 5732 5739 5741 5742 5743 5743 5743 5743 5743 5742 5741 5740 5739 5739 5739 5739 5738 5736 5735 5734 5733 5731 5730 5729 5727 5725 5723
5759 5758 5756 5754 5752 5750 5747 5745 5744 5742 5739 5736 5735 5735 5734 5732 5728 5728 5735 5738 5740 5740 5741 5741 5741 5740 5739 5738 5738 5738 5737 5737 5736 5735 5734 5733 5732 5731 5730 5729 5727 5726 5725
5761 5759 5757 5755 5753 5751 5749 5747 5745 5743 5741 5738 5736 5735 5733 5731 5730 5726 5725 5730 5734 5737 5738 5739 5738 5738 5737 5736 5736 5735 5735 5735 5734 5733 5732 5731 5730 5729 5729 5728 5726 5726 5725
5761 5760 5759 5757 5755 5753 5750 5748 5746 5744 5742 5740 5738 5736 5734 5731 5729 5727 5724 5725 5727 5731 5734 5736 5735 5735 5734 5734 5733 5733 5732 5732 5731 5730 5729 5728 5727 5727 5726 5725 5724 5723 5722
5761 5760 5759 5757 5756 5754 5752 5750 5747 5745 5743 5741 5739 5737 5736 5734 5732 5729 5726 5724 5723 5726 5729 5731 5732 5732 5732 5731 5730 5730 5729 5728 5728 5727 5726 5725 5724 5723 5722 5722 5721 5720 5718
5762 5761 5759 5758 5756 5754 5752 5750 5748 5746 5744 5741 5740 5738 5736 5734 5732 5730 5727 5723 5720 5721 5723 5725 5728 5728 5727 5727 5726 5726 5725 5724 5723 5722 5721 5720 5719 5719 5718 5717 5716 5715 5714
5763 5762 5759 5757 5756 5754 5752 5750 5747 5746 5744 5741 5739 5737 5734 5733 5731 5729 5728 5725 5720 5716 5717 5720 5721 5723 5722 5722 5721 5720 5719 5718 5718 5717 5716 5715 5715 5714 5713 5712 5711 5710 5709
5764 5762 5759 5757 5756 5755 5753 5750 5747 5745 5742 5740 5738 5735 5733 5732 5730 5728 5727 5725 5722 5718 5715 5718 5718 5718 5718 5717 5716 5715 5714 5713 5712 5711 5711 5710 5709 5708 5707 5706 5705 5704 5704
5762 5761 5759 5757 5756 5754 5752 5749 5747 5744 5741 5739 5737 5734 5732 5731 5729 5727 5726 5724 5721 5718 5714 5714 5714 5714 5713 5712 5711 5710 5708 5707 5706 5706 5705 5704 5703 5702 5701 5701 5700 5699 5698
5762 5760 5759 5756 5754 5753 5751 5748 5745 5743 5740 5737 5735 5732 5731 5729 5726 5724 5723 5721 5719 5717 5713 5710 5709 5709 5708 5707 5705 5704 5703 5702 5701 5700 5700 5699 5698 5697 5695 5694 5693 5692 5691
5761 5759 5757 5754 5752 5751 5749 5747 5744 5742 5739 5737 5734 5731 5729 5726 5723 5721 5719 5717 5716 5714 5711 5708 5705 5704 5702 5701 5699 5698 5697 5696 5695 5694 5694 5693 5691 5690 5688 5687 5686 5685 5684
5758 5757 5755 5753 5750 5748 5746 5744 5742 5740 5737 5735 5732 5730 5727 5724 5722 5719 5716 5714 5712 5709 5707 5703 5701 5699 5697 5695 5693 5691 5690 5689 5688 5687 5686 5685 5684 5683 5681 5680 5679 5678 5677
5755 5753 5751 5749 5747 5745 5743 5741 5738 5736 5733 5730 5728 5726 5725 5722 5720 5717 5714 5710 5707 5704 5702 5699 5696 5694 5691 5689 5687 5686 5683 5682 5681 5680 5679 5678 5677 5675 5674 5672 5671 5670 5669
5750 5749 5747 5744 5742 5741 5739 5737 5734 5732 5729 5726 5724 5722 5721 5718 5716 5713 5711 5708 5705 5701 5698 5694 5691 5688 5686 5684 5682 5680 5677 5675 5674 5674 5672 5671 5669 5668 5667 5665 5663 5662 5661
5745 5743 5742 5739 5737 5737 5736 5732 5730 5728 5725 5722 5720 5718 5715 5714 5711 5709 5706 5703 5700 5698 5696 5693 5688 5686 5683 5680 5677 5674 5672 5670 5669 5667 5665 5664 5662 5661 5660 5658 5656 5655 5653
5738 5737 5736 5734 5732 5732 5731 5728 5725 5723 5720 5718 5716 5714 5711 5709 5707 5704 5702 5698 5694 5692 5690 5687 5685 5683 5681 5677 5674 5671 5668 5664 5661 5660 5658 5657 5655 5653 5652 5650 5648 5647 5645
5730 5730 5729 5728 5727 5726 5724 5722 5719 5716 5714 5712 5711 5709 5706 5704 5702 5698 5695 5691 5688 5686 5684 5682 5679 5676 5674 5671 5668 5664 5660 5658 5655 5654 5651 5650 5648 5646 5644 5643 5641 5639 5637
5722 5721 5720 5721 5721 5720 5718 5714 5711 5710 5707 5705 5703 5702 5700 5698 5695 5691 5688 5685 5682 5680 5677 5675 5671 5668 5666 5664 5662 5659 5656 5653 5649 5647 5645 5643 5641 5638 5637 5635 5633 5631 5629